sat.trackr.live / text

‹ back to catalog

STARLINK-4621

NORAD 53676 · 2022-105AE

PAYLOAD ACTIVE UNKNOWN

§ Identity

Operator
Country
US
Launch date
2022-08-31
Launch site
AFWTR
Launch vehicle
Mass (kg)
RCS (m²)

Purposes: comms

External: N2YO · Heavens-Above · Gunter

§ Orbital elements

Epoch: 2026-09-20T21:08:56.081760Z

Period
95.64 min
Inclination
97.2872°
Eccentricity
0.0002001
Mean motion
15.05649793 rev/d
Perigee alt
548.1 km
Apogee alt
550.9 km
Semi-major
6,927.6 km
B*
3.7051e-5
RAAN
137.6803°
Arg perigee
65.9144°
Mean anomaly
294.2293°
Rev number
22,260

§ Raw data

STARLINK-46211 53676U 22105AE  26263.88120465  .00000478  00000+0  37051-4 0  99982 53676  97.2872 137.6803 0002001  65.9144 294.2293 15.05649793222606

JSON: /api/v1/satellites/53676 · /tle

For live sub-satellite position, see the globe view (requires WebGL).

§ Visibility from observer

Set your observer location to see the next 7 days of passes ≥ 10°. The values pass through the URL so the page stays shareable.

No JS? Fill the form by hand. The geolocation button needs JavaScript.

§ Radio — SatNOGS DB

ModeDescriptionDownlinkUplink
CW Ku-band 11325 MHz beacon 11.325 GHz
CW Ku-band 11575 MHz beacon 11.575 GHz
CW Ku-band 11950 MHz beacon 11.950 GHz
CW Ku-band 12450 MHz beacon 12.450 GHz

4 transmitters · refreshed weekly from db.satnogs.org